Date,TemperatureHighF,TemperatureAvgF,TemperatureLowF,DewpointHighF,DewpointAvgF,DewpointLowF,HumidityHigh,HumidityAvg,HumidityLow,PressureMaxIn,PressureMinIn,WindSpeedMaxMPH,WindSpeedAvgMPH,GustSpeedMaxMPH,PrecipitationSumIn
2013-3-1,42,37,32,30,28,24,88,70,56,29.83,29.63,16,3,17,0.00
2013-3-2,36,32,28,25,22,19,71,65,56,29.82,29.74,16,4,16,0.00
2013-3-3,36,31,26,20,18,16,70,59,51,29.82,29.72,19,6,19,0.00
2013-3-4,41,32,27,21,18,16,65,57,41,29.96,29.82,27,8,28,0.00
2013-3-5,48,37,30,27,23,21,69,58,39,30.04,29.94,16,3,20,0.00
2013-3-6,42,38,35,34,29,25,84,70,62,29.98,29.81,31,8,34,0.02
2013-3-7,44,37,32,30,27,24,86,66,49,30.11,29.96,20,5,22,0.00
2013-3-8,43,34,28,31,27,23,91,77,59,30.25,30.06,20,3,20,0.14
2013-3-9,60,43,32,26,21,11,67,45,15,30.31,30.22,12,2,12,0.00
2013-3-10,56,42,29,35,28,22,81,59,30,30.36,30.24,15,3,16,0.00
2013-3-11,56,45,36,46,39,32,93,80,53,30.31,30.02,20,4,20,0.00
2013-3-12,56,51,43,54,47,34,94,87,70,30.02,29.66,29,8,29,1.50
2013-3-13,46,40,34,31,26,18,72,58,39,29.92,29.80,27,6,28,0.00
2013-3-14,40,33,29,19,12,6,62,42,25,29.99,29.87,31,10,32,0.00
2013-3-15,46,37,26,30,20,10,60,50,40,30.02,29.72,24,6,25,0.00
2013-3-16,43,34,31,29,26,21,89,75,57,29.93,29.76,18,1,24,0.03
2013-3-17,36,32,27,29,20,16,91,64,44,30.31,29.93,17,2,20,0.00
2013-3-18,35,29,24,30,19,9,92,68,45,30.39,29.93,21,3,21,0.00
2013-3-19,49,38,32,36,29,16,93,75,37,29.94,29.69,29,4,29,0.32
2013-3-20,44,36,30,22,17,11,61,46,27,29.90,29.77,30,7,30,0.00
2013-3-21,38,32,27,27,17,9,89,56,31,29.83,29.65,21,4,21,0.00
2013-3-22,39,30,25,22,18,11,73,60,42,29.92,29.76,23,6,26,0.00
2013-3-23,45,36,30,22,19,17,62,50,35,29.96,29.86,26,7,26,0.00
2013-3-24,45,38,30,25,20,16,60,47,32,29.97,29.69,15,2,16,0.00
2013-3-25,38,35,32,33,29,24,91,79,58,29.69,29.48,14,2,14,0.13
2013-3-26,50,40,34,33,29,21,92,68,33,29.90,29.63,17,3,18,0.01
2013-3-27,50,40,32,32,27,19,80,62,32,30.02,29.89,23,5,23,0.00
2013-3-28,47,40,32,30,28,26,79,62,46,30.15,29.99,17,3,17,0.00
2013-3-29,51,44,34,31,28,23,72,55,39,30.17,30.09,19,3,19,0.00
2013-3-30,57,45,31,31,23,12,82,47,18,30.19,30.06,22,2,22,0.00
2013-3-31,56,43,30,42,32,20,92,66,37,30.12,29.70,24,4,24,0.13